Weather History for Claremore, OK

Change the Weather History Date:

Thursday, January 23, 2014

  Actual Average (KTUL) Record (KTUL)
Temperature  
Mean Temperature 18 °F 38 °F  
Max Temperature 32 °F 49 °F 78 °F (1909)
Min Temperature 5 °F 28 °F -8 °F (1930)
Degree Days  
Heating Degree Days 46 27  
Month to date heating degree days 636  
Since 1 July heating degree days 2064  
Moisture  
Dew Point -1 °F    
Average Humidity 47    
Maximum Humidity 79    
Minimum Humidity 33    
Precipitation  
Precipitation 0.00 in 0.06 in 1.42 in (1953)
Month to date precipitation 1.21  
Year to date precipitation 1.21  
Sea Level Pressure  
Sea Level Pressure 30.71 in    
Wind  
Wind Speed 13 mph (North)    
Max Wind Speed 22 mph    
Max Gust Speed 29 mph    
Visibility 10 miles    
Events      
T = Trace of Precipitation, MM = Missing Value Source: NWS Daily Summary

Daily Weather History Graph

Daily Weather History Graph

Search for Another Location

Airport:

Trip Planner

Search our weather history database for the weather conditions in past years. The results will help you decide how hot, cold, wet, or windy it might be!

Date:

Astronomy

Jan. 23, 2014 Rise Set
Actual Time 7:29 AM CST 5:38 PM CST
Civil Twilight 7:01 AM CST 6:06 PM CST
Nautical Twilight 6:30 AM CST 6:37 PM CST
Astronomical Twilight 5:59 AM CST 7:08 PM CST
Moon No Moon Rise 11:18 AM CST (1/23)
Length of Visible Light 11h 04m
Length of Day
10h 09m
Waning Gibbous, 55% of the Moon is Illuminated
Jan 23
Waning Gibbous
Jan 23
Last Quarter
Jan 30
New
Feb 6
First Quarter
Feb 14
Full

Hourly Weather History & Observations

Time (CST) Temp. Windchill Dew Point Humidity Pressure Visibility Wind Dir Wind Speed Gust Speed Precip Events Conditions
12:15 AM 32.0 °F 21.2 °F 17.6 °F 55% 30.38 in 10.0 mi North 16.1 mph 28.8 mph N/A   Clear
12:35 AM 30.2 °F 19.8 °F 17.6 °F 60% 30.39 in 10.0 mi North 13.8 mph 21.9 mph N/A   Clear
12:55 AM 28.4 °F 16.2 °F 15.8 °F 59% 30.40 in 10.0 mi North 17.3 mph 24.2 mph N/A   Clear
1:15 AM 28.4 °F 17.0 °F 15.8 °F 59% 30.41 in 10.0 mi NNE 15.0 mph 23.0 mph N/A   Clear
1:35 AM 28.4 °F 17.5 °F 14.0 °F 55% 30.42 in 10.0 mi North 13.8 mph 21.9 mph N/A   Clear
1:55 AM 26.6 °F 13.1 °F 14.0 °F 59% 30.43 in 10.0 mi NNE 19.6 mph 23.0 mph N/A   Clear
2:15 AM 24.8 °F 10.0 °F 14.0 °F 64% 30.45 in 10.0 mi NNE 21.9 mph 27.6 mph N/A   Clear
2:35 AM 23.0 °F 8.3 °F 12.2 °F 63% 30.47 in 10.0 mi North 19.6 mph 24.2 mph N/A   Clear
2:55 AM 21.2 °F 6.8 °F 5.0 °F 50% 30.49 in 10.0 mi North 17.3 mph 27.6 mph N/A   Clear
3:15 AM 21.2 °F 6.8 °F 1.4 °F 42% 30.51 in 10.0 mi North 17.3 mph 25.3 mph N/A   Clear
3:35 AM 19.4 °F 4.1 °F 1.4 °F 46% 30.52 in 10.0 mi North 18.4 mph 27.6 mph N/A   Clear
3:55 AM 19.4 °F 3.6 °F 1.4 °F 46% 30.53 in 10.0 mi North 19.6 mph 28.8 mph N/A   Clear
4:15 AM 17.6 °F 1.3 °F -0.4 °F 45% 30.54 in 10.0 mi NNE 19.6 mph 24.2 mph N/A   Clear
4:35 AM 17.6 °F 1.7 °F -2.2 °F 42% 30.55 in 10.0 mi North 18.4 mph 24.2 mph N/A   Clear
4:55 AM 17.6 °F 0.9 °F -2.2 °F 42% 30.58 in 10.0 mi North 20.7 mph 25.3 mph N/A   Clear
5:15 AM 17.6 °F 3.2 °F -2.2 °F 42% 30.59 in 10.0 mi North 15.0 mph 20.7 mph N/A   Clear
5:35 AM 15.8 °F 0.3 °F -4.0 °F 41% 30.60 in 10.0 mi North 16.1 mph 21.9 mph N/A   Clear
5:55 AM 15.8 °F 1.4 °F -4.0 °F 41% 30.61 in 10.0 mi NNE 13.8 mph 25.3 mph N/A   Clear
6:15 AM 15.8 °F -1.1 °F -4.0 °F 41% 30.62 in 10.0 mi NNE 19.6 mph 24.2 mph N/A   Clear
6:35 AM 14.0 °F -0.2 °F -4.0 °F 45% 30.64 in 10.0 mi North 12.7 mph 23.0 mph N/A   Clear
6:55 AM 14.0 °F -0.8 °F -4.0 °F 45% 30.65 in 10.0 mi North 13.8 mph 20.7 mph N/A   Clear
7:15 AM 14.0 °F -3.0 °F -5.8 °F 41% 30.67 in 10.0 mi NNE 18.4 mph 25.3 mph N/A   Clear
7:35 AM 12.2 °F -1.8 °F -4.0 °F 48% 30.68 in 10.0 mi NNE 11.5 mph 19.6 mph N/A   Clear
7:55 AM 12.2 °F -4.8 °F -4.0 °F 48% 30.69 in 10.0 mi NNE 17.3 mph - N/A   Clear
8:15 AM 12.2 °F -3.7 °F -4.0 °F 48% 30.71 in 10.0 mi NNE 15.0 mph 21.9 mph N/A   Clear
8:35 AM 12.2 °F -2.5 °F -4.0 °F 48% 30.73 in 10.0 mi NNE 12.7 mph 24.2 mph N/A   Clear
8:55 AM 12.2 °F -2.5 °F -4.0 °F 48% 30.74 in 10.0 mi North 12.7 mph 19.6 mph N/A   Clear
9:15 AM 14.0 °F -1.4 °F -4.0 °F 45% 30.76 in 10.0 mi North 15.0 mph 19.6 mph N/A   Clear
9:35 AM 14.0 °F -1.4 °F -4.0 °F 45% 30.77 in 10.0 mi North 15.0 mph 23.0 mph N/A   Clear
9:55 AM 14.0 °F -0.8 °F -4.0 °F 45% 30.78 in 10.0 mi North 13.8 mph 21.9 mph N/A   Clear
10:15 AM 14.0 °F 0.5 °F -4.0 °F 45% 30.80 in 10.0 mi North 11.5 mph 19.6 mph N/A   Clear
10:35 AM 14.0 °F 1.2 °F -4.0 °F 45% 30.81 in 10.0 mi North 10.4 mph 21.9 mph N/A   Clear
10:55 AM 14.0 °F -2.0 °F -5.8 °F 41% 30.82 in 10.0 mi North 16.1 mph 21.9 mph N/A   Clear
11:15 AM 14.0 °F -0.2 °F -5.8 °F 41% 30.83 in 10.0 mi North 12.7 mph 20.7 mph N/A   Clear
11:35 AM 15.8 °F 3.4 °F -4.0 °F 41% 30.82 in 10.0 mi North 10.4 mph 21.9 mph N/A   Clear
11:55 AM 17.6 °F 5.7 °F -4.0 °F 38% 30.82 in 10.0 mi North 10.4 mph 18.4 mph N/A   Clear
12:15 PM 17.6 °F 3.7 °F -4.0 °F 38% 30.82 in 10.0 mi North 13.8 mph 18.4 mph N/A   Clear
12:35 PM 17.6 °F 3.7 °F -5.8 °F 35% 30.81 in 10.0 mi North 13.8 mph 18.4 mph N/A   Clear
12:55 PM 17.6 °F 3.7 °F -5.8 °F 35% 30.81 in 10.0 mi NE 13.8 mph 20.7 mph N/A   Clear
1:15 PM 19.4 °F 8.6 °F -4.0 °F 36% 30.80 in 10.0 mi NNE 9.2 mph 18.4 mph N/A   Clear
1:35 PM 19.4 °F 7.2 °F -5.8 °F 33% 30.79 in 10.0 mi NNE 11.5 mph 19.6 mph N/A   Clear
1:55 PM 19.4 °F 6.0 °F -5.8 °F 33% 30.79 in 10.0 mi North 13.8 mph 19.6 mph N/A   Clear
2:15 PM 19.4 °F 7.9 °F -4.0 °F 36% 30.78 in 10.0 mi North 10.4 mph 17.3 mph N/A   Clear
2:35 PM 19.4 °F 7.2 °F -5.8 °F 33% 30.78 in 10.0 mi North 11.5 mph 19.6 mph N/A   Clear
2:55 PM 21.2 °F 9.5 °F -4.0 °F 33% 30.78 in 10.0 mi North 11.5 mph 16.1 mph N/A   Clear
3:15 PM 19.4 °F 8.6 °F -5.8 °F 33% 30.78 in 10.0 mi North 9.2 mph 19.6 mph N/A   Clear
3:35 PM 19.4 °F 7.9 °F -4.0 °F 36% 30.79 in 10.0 mi North 10.4 mph - N/A   Clear
3:55 PM 19.4 °F 9.5 °F -4.0 °F 36% 30.79 in 10.0 mi North 8.1 mph - N/A   Clear
4:15 PM 19.4 °F 9.5 °F -4.0 °F 36% 30.80 in 10.0 mi NNW 8.1 mph - N/A   Clear
4:35 PM 19.4 °F 7.9 °F -4.0 °F 36% 30.80 in 10.0 mi North 10.4 mph - N/A   Clear
4:55 PM 19.4 °F 10.4 °F -4.0 °F 36% 30.80 in 10.0 mi NNE 6.9 mph - N/A   Clear
5:15 PM 17.6 °F 9.3 °F -5.8 °F 35% 30.80 in 10.0 mi North 5.8 mph - N/A   Clear
5:35 PM 17.6 °F 9.3 °F -5.8 °F 35% 30.81 in 10.0 mi North 5.8 mph - N/A   Clear
5:55 PM 15.8 °F 10.2 °F -5.8 °F 38% 30.81 in 10.0 mi North 3.5 mph - N/A   Clear
6:15 PM 14.0 °F 6.5 °F -4.0 °F 45% 30.81 in 10.0 mi North 4.6 mph - N/A   Clear
6:35 PM 14.0 °F 8.2 °F -4.0 °F 45% 30.81 in 10.0 mi North 3.5 mph - N/A   Clear
6:55 PM 14.0 °F 8.2 °F -4.0 °F 45% 30.82 in 10.0 mi North 3.5 mph - N/A   Clear
7:15 PM 14.0 °F - -4.0 °F 45% 30.82 in 10.0 mi Calm Calm - N/A   Clear
7:35 PM 14.0 °F 8.2 °F -4.0 °F 45% 30.83 in 10.0 mi North 3.5 mph - N/A   Clear
7:55 PM 12.2 °F - -4.0 °F 48% 30.82 in 10.0 mi Calm Calm - N/A   Clear
8:15 PM 12.2 °F - -4.0 °F 48% 30.82 in 10.0 mi Calm Calm - N/A   Clear
8:35 PM 10.4 °F 4.0 °F -2.2 °F 57% 30.82 in 10.0 mi North 3.5 mph - N/A   Clear
8:55 PM 12.2 °F 6.1 °F -4.0 °F 48% 30.82 in 10.0 mi North 3.5 mph - N/A   Clear
9:15 PM 10.4 °F 4.0 °F -2.2 °F 57% 30.82 in 10.0 mi NNE 3.5 mph - N/A   Clear
9:55 PM 10.4 °F - -2.2 °F 57% 30.82 in 10.0 mi Calm Calm - N/A   Clear
10:15 PM 10.4 °F - -0.4 °F 62% 30.82 in 10.0 mi Calm Calm - N/A   Clear
10:35 PM 10.4 °F - -0.4 °F 62% 30.82 in 10.0 mi Calm Calm - N/A   Clear
10:55 PM 6.8 °F - -0.4 °F 72% 30.82 in 10.0 mi Calm Calm - N/A   Clear
11:15 PM 6.8 °F - 1.4 °F 79% 30.83 in 10.0 mi Calm Calm - N/A   Clear
11:35 PM 5.0 °F - -0.4 °F 78% 30.82 in 10.0 mi Calm Calm - N/A   Clear
11:55 PM 5.0 °F - -0.4 °F 78% 30.81 in 10.0 mi Calm Calm - N/A   Clear